Theta_e
329 330 335 340 342 342 341 341 341 342 342 343 342 343 342 343 343 346 349 348 345 348 347 347 346 345 344 345 344 343 344 345 342 340 341 342 338 339 342 342 342 343 343 342 339 333 329 325 332 338 342 340 337 333 333 335 338 336 334 335 334 334 333
333 331 333 335 341 342 341 341 341 341 342 343 343 342 343 344 345 346 348 348 347 346 345 346 348 346 344 344 347 347 343 347 347 343 343 342 342 341 340 339 340 340 340 340 339 338 332 328 328 331 334 341 340 338 335 333 335 335 335 335 336 335 334
333 333 335 332 336 342 340 340 340 340 341 342 343 343 343 345 346 347 348 348 349 346 345 345 347 347 346 346 348 349 350 348 347 348 344 344 346 345 343 342 337 338 337 336 336 335 336 334 328 330 333 333 331 335 334 332 336 337 335 334 335 335 334
332 332 331 331 335 340 339 339 340 340 342 341 342 343 344 345 346 347 348 348 349 347 345 345 344 345 347 348 351 349 350 348 348 346 347 347 347 345 344 342 341 339 337 335 334 336 334 333 331 332 334 334 333 333 337 340 339 339 339 338 336 334 335
333 332 333 334 338 338 339 338 341 341 341 342 343 343 344 345 346 346 348 348 349 347 345 346 345 345 348 347 350 349 348 349 349 347 347 345 345 345 345 344 343 343 342 338 338 340 337 337 336 332 333 334 334 334 337 340 340 338 339 337 337 336 335
336 336 337 338 339 338 339 339 340 339 341 341 341 342 344 345 346 346 346 347 347 348 346 346 347 345 346 347 348 348 349 347 347 347 346 345 345 344 343 345 344 344 341 343 343 341 343 342 339 334 335 335 330 332 335 337 335 337 338 337 336 336 335
337 339 339 339 340 340 340 340 341 341 341 341 341 342 345 346 346 347 347 347 348 348 348 347 347 346 347 346 347 347 346 347 347 346 346 346 346 346 346 344 343 341 342 345 346 344 340 340 339 336 335 335 333 330 332 334 334 331 332 336 336 334 333
339 340 340 341 341 341 341 341 341 343 342 343 342 344 346 345 346 348 348 347 347 348 348 347 347 346 347 346 346 347 346 347 346 347 344 345 345 345 345 344 345 343 344 344 345 344 346 345 341 338 335 328 328 331 329 326 331 331 330 333 335 333 333
340 341 341 341 342 343 342 342 342 343 344 344 344 345 346 345 347 347 348 347 348 348 348 347 346 345 346 346 346 346 346 347 346 345 345 346 344 345 345 345 343 343 346 346 348 348 347 347 344 344 340 333 326 323 327 327 326 328 333 330 333 333 333
338 340 340 342 342 343 343 343 343 344 345 346 345 346 346 345 347 347 347 347 348 349 348 347 345 344 346 345 346 346 344 344 345 344 345 344 345 345 345 344 343 344 345 348 345 346 347 345 347 345 342 336 333 326 322 322 324 325 328 332 328 331 333
337 339 341 343 344 343 344 344 344 344 345 346 346 347 346 344 347 348 347 347 348 349 348 347 346 344 345 345 346 346 344 345 344 345 346 344 345 345 344 345 344 344 345 346 345 346 344 345 346 344 343 342 338 330 326 322 322 328 327 330 331 328 331
337 338 341 343 344 344 344 345 344 345 347 346 346 347 346 344 347 347 348 347 347 347 348 347 345 345 346 346 346 345 345 345 344 344 345 344 345 346 344 343 344 343 346 346 345 344 344 343 345 344 343 343 336 336 330 327 321 328 333 328 330 332 330
336 337 339 342 344 340 335 337 342 345 346 347 347 348 346 345 347 346 347 346 345 347 347 347 346 345 346 346 345 345 344 343 343 342 343 345 346 345 344 342 343 344 345 345 344 344 344 344 342 341 342 340 337 336 334 329 324 325 331 330 330 331 332
335 336 339 341 342 335 333 330 330 335 344 346 346 346 347 346 346 345 345 345 345 346 346 346 347 345 346 346 345 345 344 343 341 341 342 342 343 344 343 342 342 344 345 343 342 343 343 342 341 345 341 342 339 335 333 329 325 325 328 332 331 330 331
335 336 338 339 338 337 334 334 334 334 335 342 346 346 346 346 345 344 344 344 345 346 346 346 347 345 346 345 345 345 344 342 340 340 340 339 341 343 343 341 341 342 343 343 343 341 342 341 340 338 336 336 334 336 336 330 327 326 326 329 328 330 329
336 336 336 337 336 336 334 333 335 335 335 335 343 347 347 346 345 344 344 344 346 346 346 346 346 345 345 345 344 343 344 342 340 339 339 339 340 341 341 341 341 342 343 342 343 341 342 340 339 336 336 334 334 334 334 332 329 326 326 326 328 327 328
337 335 334 336 336 336 336 335 336 336 336 336 337 344 346 345 345 344 345 345 347 345 346 346 346 346 345 344 343 343 343 343 342 340 340 339 338 341 340 340 341 342 342 341 342 341 341 341 340 338 335 336 334 332 334 334 331 328 329 326 327 327 329
335 335 334 335 336 336 336 335 336 336 336 336 336 336 345 346 346 345 345 345 345 346 346 346 345 345 345 345 344 343 342 342 341 341 340 339 341 340 340 340 341 342 341 340 340 340 340 339 338 337 335 334 332 333 333 333 331 330 328 328 328 328 329
334 335 335 336 336 337 337 336 335 336 337 336 335 336 339 346 346 344 346 345 346 346 347 347 345 344 344 344 344 343 343 342 341 340 340 340 340 340 340 340 342 341 341 340 339 340 339 339 338 336 334 333 332 332 331 331 330 329 328 329 326 325 327
334 335 336 336 337 337 336 337 337 338 338 336 336 335 336 341 346 344 345 346 346 346 346 346 345 344 344 344 344 343 343 342 341 340 340 340 340 340 341 341 342 342 341 340 340 340 340 338 338 335 334 334 332 332 330 330 329 328 328 327 325 326 325
335 336 336 337 337 338 338 338 338 339 339 339 337 337 336 341 345 345 344 345 346 346 346 344 344 345 344 344 344 344 344 342 341 340 340 340 340 341 342 341 342 342 342 342 341 341 340 338 337 335 335 334 332 330 330 330 330 328 327 327 324 323 324
334 336 337 337 337 337 337 338 338 338 339 339 339 338 337 339 344 345 344 345 345 346 345 344 345 344 344 344 344 344 344 343 341 340 340 340 341 341 342 342 342 342 342 341 331 331 332 336 340 333 334 333 331 330 328 328 329 327 327 327 325 324 323
334 336 336 336 336 336 337 337 337 337 337 336 336 335 335 334 332 340 343 343 345 346 345 346 339 330 332 343 344 344 343 342 341 340 340 339 340 341 341 342 343 338 325 324 318 311 309 313 321 331 332 332 331 329 328 327 327 327 326 326 324 323 321
335 335 335 335 336 336 336 337 337 337 336 333 333 333 332 333 334 333 339 343 344 345 346 345 322 314 318 324 342 344 343 342 341 340 340 339 339 340 340 341 333 328 324 319 312 304 304 304 304 303 304 307 314 329 328 327 327 328 326 326 326 324 322
335 336 336 335 335 335 336 336 336 335 333 329 331 334 333 334 334 333 334 340 343 343 345 327 309 310 312 315 327 343 343 342 341 340 340 340 340 340 339 338 334 333 331 324 316 312 307 302 300 299 299 299 299 299 309 323 326 328 327 325 324 324 324
335 335 335 335 335 335 335 336 335 335 334 334 334 334 333 334 334 334 334 336 341 343 343 310 308 308 309 310 315 333 343 342 341 340 340 340 340 339 339 339 336 337 332 327 326 321 315 310 304 303 302 303 301 300 296 298 307 319 320 328 325 325 325
329 335 336 335 335 334 333 335 336 336 335 335 335 333 332 332 333 334 335 338 342 344 343 311 307 307 307 306 307 322 342 342 341 341 341 341 341 340 340 339 337 336 330 330 330 325 322 318 316 315 317 319 315 308 301 298 298 298 311 325 326 325 327
334 336 335 335 335 334 333 333 334 335 334 334 334 334 334 333 333 333 336 341 341 343 341 305 305 305 305 305 306 321 342 342 342 341 341 341 341 341 340 341 339 335 331 332 332 328 326 323 322 322 322 323 322 321 315 313 313 315 323 326 323 321 320
334 335 334 334 334 333 333 332 331 332 334 334 334 335 335 336 334 335 339 342 341 341 336 302 305 304 305 305 307 337 342 342 341 341 342 342 342 341 340 342 339 335 334 334 323 313 320 326 325 323 322 323 318 312 306 301 295 296 310 320 318 316 312
334 335 334 333 332 332 331 332 331 332 333 333 333 333 333 335 337 339 340 342 341 342 333 307 305 303 304 302 314 339 341 340 340 340 340 341 341 340 340 342 339 337 335 332 312 307 309 318 325 323 323 322 318 314 310 308 299 296 295 296 297 297 295
334 333 333 332 331 330 331 332 331 332 331 331 332 333 334 336 338 339 341 341 342 342 337 313 302 304 304 303 322 339 340 339 338 339 339 340 339 339 339 338 339 338 335 328 304 305 305 319 325 324 323 319 316 312 311 312 311 305 296 295 295 295 297
334 333 332 331 330 329 329 329 330 330 331 332 330 333 334 336 337 339 342 342 336 342 340 318 300 304 303 304 322 340 339 338 337 337 337 337 338 337 338 335 332 332 333 317 302 304 303 319 327 325 324 318 315 312 311 312 310 311 311 311 310 311 308
336 334 333 332 330 329 329 329 330 329 330 330 330 332 335 335 338 339 341 343 343 343 341 326 307 301 304 304 313 339 339 337 335 336 337 336 336 336 338 335 326 312 307 303 302 303 302 306 326 327 326 320 316 313 313 312 312 313 314 314 315 317 316
336 335 334 332 330 330 331 329 330 329 329 329 330 331 335 335 337 338 341 343 343 344 342 327 311 300 302 304 308 320 339 337 336 337 337 334 335 335 334 330 322 306 303 301 302 302 303 302 307 327 328 324 321 314 310 313 313 316 316 317 317 316 316
337 337 336 333 330 330 330 331 331 332 331 331 333 335 334 334 336 338 340 342 342 343 336 322 319 300 300 302 305 309 334 338 336 337 336 335 335 335 334 326 318 306 301 302 302 302 302 302 299 321 324 306 301 302 314 314 314 315 318 316 315 313 313
334 335 334 333 332 330 330 330 329 328 328 329 332 335 335 336 336 337 338 340 341 342 335 323 310 307 300 301 303 305 312 324 308 340 337 335 335 335 334 326 314 302 299 300 300 299 299 298 307 312 295 296 301 301 309 315 313 316 316 314 314 312 311
334 333 332 330 330 330 329 328 327 326 326 327 329 329 331 335 337 334 332 334 335 337 333 327 309 306 305 298 301 304 302 295 299 319 334 337 336 335 331 321 309 297 298 297 298 298 299 304 307 295 297 299 300 305 318 316 316 317 313 312 312 311 310
Wind_Speed
9 4 9 9 9 11 10 11 10 10 11 10 11 12 11 10 9 9 8 8 8 7 8 7 7 8 7 7 7 7 6 6 7 5 3 3 7 4 4 3 4 3 2 2 3 2 1 1 1 1 2 6 11 12 9 4 4 5 5 5 5 5 5
8 10 5 11 8 9 9 9 9 10 10 10 10 12 11 12 11 10 9 9 8 8 8 7 6 8 8 6 6 7 8 6 5 6 3 4 4 4 6 5 3 3 3 3 3 3 2 1 2 2 2 1 1 7 9 9 7 7 6 6 5 6 5
8 9 8 7 9 8 8 9 9 10 9 9 10 10 10 12 12 11 9 9 8 9 8 8 7 7 8 6 5 4 5 4 3 4 5 3 2 2 3 3 5 3 3 3 3 4 3 3 3 3 1 0 1 4 6 3 8 8 8 7 7 6 6
13 10 11 14 12 8 9 11 9 10 9 10 10 11 11 11 11 10 8 9 8 7 8 9 8 7 7 6 4 5 4 4 4 4 3 3 2 2 2 2 2 3 3 3 3 3 3 2 2 2 1 0 2 5 3 6 6 8 9 8 8 8 7
14 12 12 13 13 11 10 11 9 9 9 8 9 9 10 10 11 10 9 9 9 8 9 7 8 7 6 5 4 5 5 5 4 4 4 4 4 3 3 2 3 3 2 3 3 1 2 1 1 2 1 1 0 3 2 3 3 8 8 8 7 6 6
12 14 14 12 12 12 10 11 10 10 10 9 10 10 10 11 10 10 10 10 9 9 9 9 8 9 6 6 5 5 5 6 5 5 5 4 5 4 4 3 4 3 4 3 2 1 1 1 1 1 1 1 1 1 5 5 2 5 7 7 7 6 5
12 12 13 12 11 10 11 11 11 11 12 12 12 12 11 12 10 11 11 10 10 10 10 10 9 9 8 7 6 6 6 5 5 5 5 4 4 4 3 3 4 5 4 3 2 2 1 1 1 1 0 1 1 2 2 6 3 6 3 6 6 5 5
10 10 11 11 11 12 12 13 13 11 11 12 12 11 12 13 11 11 11 10 10 11 10 9 8 8 8 7 7 7 6 6 7 6 6 5 4 4 4 3 3 4 5 5 3 2 1 2 2 0 1 1 2 1 2 3 8 5 7 6 8 5 6
11 10 9 10 11 12 13 14 14 13 11 11 12 11 13 14 12 12 11 11 10 10 10 10 8 8 8 8 7 7 7 5 5 5 5 5 5 4 4 3 4 3 2 2 1 3 2 2 2 1 1 1 1 1 2 1 4 5 10 8 6 6 6
14 13 12 12 13 12 12 13 13 12 12 12 11 12 13 13 12 12 12 11 11 10 10 10 9 8 8 8 6 7 8 5 6 6 6 4 4 4 3 4 4 4 3 2 3 2 2 2 2 2 1 2 1 0 1 1 1 3 7 9 5 5 7
15 14 13 13 13 13 13 13 12 12 13 12 11 11 12 14 13 14 12 12 10 9 10 10 9 8 8 8 7 6 7 6 5 5 5 5 4 4 4 4 4 3 3 5 4 3 2 2 2 3 2 2 3 0 2 0 1 2 5 6 6 7 6
14 12 11 11 10 12 16 14 14 13 12 11 12 12 13 14 13 13 12 11 11 10 10 10 9 8 9 8 8 6 7 7 5 4 4 4 4 5 5 5 4 4 3 4 4 3 2 3 2 2 2 2 4 1 1 1 0 1 1 5 6 7 8
15 13 12 11 8 7 7 7 8 13 11 10 10 11 12 14 14 14 12 12 12 11 11 10 9 9 9 8 8 6 7 8 6 5 4 4 4 4 4 5 5 4 4 4 4 4 4 3 3 2 3 3 5 3 2 1 1 1 2 5 8 8 10
14 12 12 11 8 9 8 8 5 13 6 10 10 11 12 13 14 14 14 13 13 11 11 10 9 9 9 9 9 8 8 8 8 6 5 5 5 4 5 5 5 5 4 5 4 5 4 5 3 1 2 2 1 3 3 1 1 1 2 3 5 7 9
15 13 13 13 11 6 9 10 11 10 11 10 10 12 14 13 13 15 14 14 13 12 12 11 10 9 9 10 9 8 7 8 8 7 7 6 7 6 5 5 5 6 5 4 4 4 5 5 5 4 4 3 3 2 3 1 2 0 4 3 5 6 6
13 13 14 13 13 10 9 9 8 10 9 11 11 11 13 13 14 14 13 13 13 13 13 12 11 10 10 10 11 9 8 8 8 7 8 7 7 8 6 5 5 5 5 5 4 4 5 5 5 6 5 4 3 3 1 3 1 1 3 4 5 6 5
12 14 12 12 14 13 9 10 7 8 9 11 12 12 11 12 12 13 13 14 14 13 13 12 12 11 11 11 10 11 9 8 8 8 7 8 7 7 8 7 6 4 6 6 5 4 5 4 3 4 4 4 4 3 3 3 2 0 1 6 5 6 5
10 14 15 14 13 12 12 11 10 10 8 8 10 13 11 11 12 13 12 14 14 13 14 13 13 12 11 10 11 10 10 9 7 8 8 7 7 6 8 8 7 5 6 6 5 5 5 6 4 3 3 4 4 5 3 3 3 2 1 3 3 3 5
11 11 9 11 14 13 11 11 11 9 9 11 10 10 15 11 11 14 13 14 13 14 13 13 13 13 11 11 10 9 10 9 8 8 8 8 6 6 6 8 7 7 6 7 6 5 5 6 5 4 4 3 3 5 5 4 3 3 3 5 6 5 3
12 12 12 10 10 10 10 10 11 11 10 11 12 12 14 16 12 14 14 14 14 14 14 13 13 12 12 12 11 10 9 9 9 7 7 8 7 6 6 6 6 6 6 7 6 6 5 6 5 4 5 4 2 5 6 5 3 3 4 7 4 5 5
15 14 12 11 11 10 10 10 11 11 10 11 11 10 15 20 15 14 13 13 13 13 13 13 13 13 11 11 10 9 9 9 8 8 6 7 7 6 6 6 5 5 5 6 6 6 7 7 6 4 5 4 4 3 5 5 5 3 4 7 5 6 4
10 11 12 12 11 11 10 10 9 9 10 10 9 10 12 16 16 16 13 14 13 13 12 12 11 12 12 10 10 9 9 9 8 8 7 7 6 6 5 6 5 5 5 6 8 7 6 6 6 6 5 4 4 5 4 4 6 5 4 6 6 5 5
13 11 11 12 10 11 10 10 9 9 9 7 6 3 3 6 12 11 13 14 13 12 11 10 12 17 14 10 10 9 8 8 8 7 7 7 6 5 6 5 5 9 11 12 12 13 12 12 10 7 4 2 5 6 5 4 5 5 5 6 7 7 6
12 13 12 10 10 10 9 9 9 9 6 2 2 2 5 8 8 11 13 13 12 11 10 9 17 17 18 16 11 9 8 7 8 8 6 6 6 5 5 5 7 10 11 10 10 13 13 13 13 13 12 9 6 3 6 5 4 4 4 5 7 8 8
11 13 12 13 10 11 8 9 9 6 5 5 8 5 4 9 9 9 13 10 9 10 10 11 18 17 16 17 13 10 8 6 7 7 7 7 6 5 5 7 6 7 7 9 9 9 10 12 13 12 11 10 10 10 8 4 2 2 3 4 4 7 7
12 11 10 11 10 8 8 8 8 7 7 9 10 8 10 10 9 9 12 13 10 9 8 14 17 17 15 15 13 11 8 7 7 7 6 6 6 6 5 8 7 6 7 14 10 9 9 8 9 12 12 11 8 9 9 8 7 5 1 1 4 7 7
10 9 9 9 8 6 6 6 7 7 7 8 8 8 9 10 9 10 14 15 8 8 6 12 17 17 16 15 13 9 8 8 6 7 7 7 6 6 6 9 8 7 8 8 7 9 8 9 7 7 6 4 4 4 4 6 7 4 1 1 3 2 3
11 8 7 7 8 8 8 6 5 5 7 7 7 8 10 9 9 11 16 10 7 7 6 14 16 17 16 16 15 10 7 7 7 6 6 7 7 6 6 7 9 9 10 8 7 9 8 8 7 6 5 4 4 3 4 4 4 4 4 5 5 5 2
10 9 9 8 7 7 7 8 8 5 5 6 5 6 5 6 10 15 14 7 7 8 8 16 16 16 17 15 16 9 7 6 5 4 3 3 4 5 6 7 9 9 9 7 11 16 10 8 7 6 5 4 6 5 5 2 2 3 2 3 3 5 4
10 9 9 9 10 8 7 7 6 6 5 5 5 6 6 9 14 15 11 8 6 7 9 14 18 16 16 16 12 8 7 6 5 5 4 4 5 4 5 8 9 9 9 8 13 15 15 11 7 7 6 5 6 5 4 3 8 10 9 10 10 11 10
9 10 10 10 11 9 7 5 5 7 6 7 3 3 8 12 11 9 7 7 7 6 9 12 17 17 17 17 13 10 8 7 6 6 5 5 5 5 5 12 11 9 9 9 16 15 15 10 7 7 5 7 6 5 3 3 5 5 7 8 8 9 10
9 10 9 9 11 11 9 8 6 5 4 5 5 6 13 13 11 8 5 6 8 6 9 10 15 17 17 17 13 8 8 8 7 7 6 7 6 6 6 11 15 11 10 13 17 16 15 9 5 6 6 8 7 6 5 5 6 5 4 5 4 5 3
8 9 9 9 8 8 7 5 6 7 5 5 5 10 13 8 7 5 5 7 7 6 8 9 11 15 17 17 17 10 8 8 8 8 8 7 7 5 4 6 12 16 17 18 17 17 16 12 4 7 5 7 7 7 7 6 5 5 4 4 4 3 4
9 9 9 9 8 8 7 7 5 6 8 8 10 13 11 5 5 6 6 8 7 7 8 10 11 15 16 17 18 14 9 9 8 7 8 7 6 6 6 6 3 15 20 19 18 18 16 13 4 2 4 6 7 10 10 7 7 7 4 4 4 4 5
9 7 7 8 8 7 6 4 4 4 6 8 11 10 6 6 5 6 6 7 7 8 10 16 11 13 16 16 17 15 8 9 8 8 8 7 6 6 8 7 6 12 21 21 19 18 16 11 5 0 1 5 16 19 11 8 7 6 5 5 5 5 5
8 4 6 7 10 9 8 7 4 1 3 6 10 8 7 7 6 6 7 7 7 7 8 11 19 15 15 15 17 16 10 1 1 4 7 7 7 7 7 8 9 14 17 18 16 15 14 11 7 3 7 15 19 18 13 8 8 6 6 6 5 5 6
9 9 9 8 7 8 7 8 6 1 4 9 7 6 5 4 3 1 2 3 2 2 4 7 11 18 16 17 16 18 11 9 7 3 1 4 6 8 8 10 11 17 16 15 15 15 13 10 7 10 14 18 17 13 8 8 7 6 7 7 6 6 6
Wind_Direction
141 226 278 188 167 170 173 177 168 175 184 177 168 176 175 173 188 203 210 183 179 185 180 193 191 185 202 194 199 181 192 191 178 193 222 174 166 195 204 198 207 237 255 263 256 229 284 287 189 41 20 127 147 144 159 204 215 200 185 164 159 151 150
164 166 241 288 182 168 167 171 166 177 183 183 176 177 172 173 184 200 200 185 177 185 185 199 198 185 198 204 190 177 184 192 162 179 193 220 192 185 167 204 204 197 208 214 248 220 228 247 261 170 177 187 93 128 135 154 195 202 187 162 173 158 162
179 162 154 245 259 163 174 177 171 181 184 180 180 178 182 178 181 193 198 186 179 184 187 198 198 187 192 208 193 172 154 162 161 164 186 209 225 229 178 176 173 184 209 255 212 214 207 203 248 276 94 106 139 60 86 152 164 173 164 159 159 154 159
175 178 174 186 221 193 178 179 184 181 187 185 181 182 187 182 177 187 194 188 182 181 194 192 197 193 189 197 175 162 168 164 164 183 177 199 204 226 212 190 194 187 206 196 220 194 191 210 224 257 161 192 141 143 175 187 147 153 143 153 151 166 163
174 175 187 194 188 186 182 180 182 181 192 186 185 186 185 185 172 180 192 192 187 187 195 197 189 196 181 186 174 168 172 173 168 169 184 195 208 216 227 201 193 219 214 219 257 182 151 186 134 306 1 316 74 104 141 158 145 130 141 143 155 148 140
186 183 188 193 186 184 182 180 182 183 187 188 191 190 184 188 170 178 189 192 191 193 194 198 188 188 183 174 184 174 167 173 178 181 184 200 195 202 203 203 205 200 214 240 265 285 119 118 128 52 355 124 188 190 169 157 152 130 142 143 142 140 136
193 190 188 192 187 181 176 183 192 188 186 191 190 191 182 183 180 183 189 194 190 192 194 198 190 185 174 174 178 178 177 174 177 190 190 198 207 209 201 202 196 200 224 222 199 133 163 114 81 140 236 266 219 251 161 152 144 123 136 124 124 132 129
204 196 191 189 188 182 180 184 195 192 191 190 192 189 178 183 184 182 187 193 193 194 196 195 193 180 173 168 174 173 177 179 180 183 182 196 201 206 203 216 233 203 198 204 171 174 125 123 142 173 124 353 342 292 302 116 163 130 135 130 134 136 140
201 195 190 192 194 187 184 187 192 194 191 190 189 187 183 183 183 181 184 193 197 195 197 197 191 181 171 169 166 170 185 173 178 179 179 181 200 200 207 197 218 238 208 200 107 92 115 142 171 143 140 161 58 345 15 21 92 129 137 131 137 137 136
197 190 188 196 196 192 190 189 192 196 192 188 187 187 181 183 181 178 184 190 197 194 193 195 193 181 172 169 170 169 178 177 177 187 171 185 188 197 196 202 204 203 228 127 109 136 166 173 146 116 126 118 95 182 62 345 141 144 143 139 140 152 142
198 197 189 192 195 196 193 189 193 197 192 187 186 184 181 181 180 180 180 188 195 188 190 192 190 183 173 170 180 169 172 179 180 172 169 171 189 186 193 205 191 202 193 134 159 166 187 149 138 143 166 140 132 118 81 91 319 62 129 142 135 141 132
198 202 201 201 199 207 196 190 193 195 187 186 184 185 181 181 179 179 177 184 188 189 187 191 190 186 176 170 178 174 167 178 176 171 171 172 193 182 189 197 193 194 176 156 161 168 179 147 132 141 126 116 117 129 138 105 269 305 84 116 124 131 138
195 202 207 210 197 210 307 293 218 190 187 184 184 187 181 182 180 177 178 180 186 188 185 188 190 188 175 171 176 174 172 175 181 174 173 178 182 194 192 196 191 189 174 169 173 174 166 145 144 173 145 157 145 148 140 143 143 113 100 125 134 139 142
194 200 211 217 202 124 178 219 299 304 251 187 187 187 187 186 181 178 178 181 184 187 184 183 189 190 176 172 171 178 180 174 180 174 182 186 188 189 202 198 196 188 181 176 177 165 158 141 162 151 81 92 108 140 146 170 209 129 56 96 124 135 142
192 194 202 209 217 173 165 200 191 197 265 250 197 193 189 189 185 180 180 181 181 185 185 183 186 191 178 175 169 177 183 177 179 181 180 206 183 190 190 204 202 188 183 188 176 168 165 159 150 144 152 179 167 144 131 138 198 176 132 115 105 106 128
181 186 192 202 211 197 170 223 217 184 179 263 250 200 193 190 186 181 180 179 179 182 185 184 184 187 181 178 172 176 180 180 183 182 183 200 195 182 191 199 211 186 178 185 180 186 159 165 168 173 163 179 155 130 124 139 109 262 142 137 133 136 149
165 174 188 199 203 200 190 179 205 213 189 184 245 241 203 195 185 184 181 179 180 181 183 181 182 187 181 179 180 174 180 183 181 184 188 196 205 181 186 192 207 198 174 181 179 185 163 162 179 164 156 157 124 142 161 111 130 94 55 139 163 154 140
166 177 185 191 193 196 192 187 189 204 200 198 201 256 231 196 188 189 184 181 181 181 182 179 181 185 180 181 181 179 178 187 185 184 189 201 202 189 185 188 191 203 174 175 182 180 167 170 172 170 172 156 152 159 131 119 131 144 165 132 110 111 131
171 175 184 194 193 193 192 188 188 200 193 199 206 214 251 211 195 191 188 182 183 180 179 179 181 184 182 180 182 180 179 183 189 186 189 203 204 193 191 183 184 193 181 179 184 182 172 173 170 165 153 158 159 134 126 133 148 156 157 119 135 127 121
181 182 183 194 198 194 193 191 187 187 192 202 200 201 233 234 203 195 190 184 183 179 180 179 180 182 185 182 181 182 176 184 183 187 191 199 206 195 194 186 185 186 185 181 181 177 161 158 174 175 165 155 157 127 143 139 162 172 144 129 136 139 137
180 181 183 187 194 197 189 193 199 194 187 192 200 206 220 228 206 197 191 186 183 178 179 178 178 181 185 179 182 177 181 184 182 184 193 197 201 195 191 186 182 187 186 175 176 167 156 159 179 174 148 144 152 147 145 147 159 178 163 140 146 150 143
167 172 177 180 180 184 189 193 200 208 204 197 182 197 234 252 216 194 190 185 183 176 180 179 181 179 177 176 176 179 182 187 178 184 191 199 199 196 190 183 170 193 186 140 135 123 128 144 168 147 153 154 153 149 148 154 156 171 190 144 145 147 149
177 176 177 183 177 179 188 188 193 210 215 205 186 131 291 272 301 257 194 185 179 175 177 177 182 174 172 172 170 175 181 183 183 186 188 191 201 198 189 179 170 136 121 122 115 109 101 89 81 99 106 114 156 153 162 169 170 178 182 154 163 164 165
174 172 176 182 179 181 178 181 185 198 208 115 34 153 193 262 212 264 252 190 173 171 174 175 171 165 164 160 162 172 180 182 182 188 185 188 193 195 196 141 116 119 115 105 103 108 107 103 104 98 90 85 62 157 169 166 181 191 182 178 169 172 176
174 176 177 177 175 186 171 170 175 163 144 142 230 187 200 226 223 223 261 241 179 172 175 163 161 160 157 161 159 169 181 181 179 184 191 187 189 185 186 123 134 133 137 132 126 109 103 111 112 107 104 97 90 57 72 115 122 195 188 187 164 181 178
176 174 171 171 170 163 156 168 175 171 166 175 192 191 201 208 213 217 241 233 198 178 174 157 157 157 153 158 163 168 180 182 176 188 190 187 189 188 178 134 142 148 132 139 130 125 123 109 102 111 106 104 98 113 110 101 105 114 20 314 174 182 190
218 180 157 152 147 133 149 171 178 171 166 173 183 190 210 215 210 216 227 221 190 177 148 163 156 156 154 156 162 170 175 173 180 188 192 190 192 192 176 144 153 143 138 150 140 133 130 123 127 120 127 129 120 126 107 120 101 102 146 303 30 56 25
184 168 145 140 144 156 164 159 160 176 170 172 181 184 199 209 215 220 229 208 179 174 155 160 157 158 158 158 161 170 181 173 182 187 191 193 185 179 181 156 154 141 153 155 150 145 136 142 137 139 153 155 140 93 71 53 41 45 41 54 81 87 36
182 171 156 147 147 154 158 165 165 169 160 174 183 185 195 207 211 222 220 198 174 179 158 162 159 159 159 161 160 173 182 172 162 178 191 183 176 177 179 144 143 144 155 151 142 143 141 143 140 143 159 146 100 95 68 47 104 34 11 70 90 104 98
179 171 165 156 169 166 168 175 157 140 157 167 193 193 200 218 220 212 200 197 182 169 160 175 163 162 161 160 158 179 182 176 170 173 178 192 190 184 170 145 151 150 156 148 144 143 146 146 148 152 166 140 122 111 119 115 70 59 64 87 96 105 117
163 165 171 171 172 173 173 164 170 157 176 152 141 222 222 223 227 214 195 191 197 169 166 179 171 165 164 166 169 179 183 182 176 171 183 197 190 185 179 150 155 149 152 145 149 143 156 153 154 160 167 128 131 118 116 128 103 82 87 90 102 115 120
158 168 168 171 173 171 173 174 174 163 179 147 160 213 223 212 209 198 193 195 206 179 161 178 184 169 167 172 173 185 184 192 184 176 185 193 195 186 187 163 159 151 148 151 152 151 165 171 156 168 163 135 143 143 155 145 126 128 137 124 122 116 99
165 173 171 158 155 161 150 152 178 172 177 146 168 228 224 211 187 191 183 200 192 192 163 173 185 180 172 175 179 181 192 192 195 182 188 193 184 190 149 151 162 144 135 153 158 159 169 183 171 174 165 153 154 149 151 140 140 138 144 133 137 129 114
168 176 173 160 150 151 160 170 184 191 188 177 185 219 223 192 188 196 193 198 199 194 165 167 180 182 183 180 184 182 192 196 195 183 189 198 182 164 132 128 115 144 148 157 162 164 172 171 96 139 152 183 166 150 147 138 156 165 157 144 137 126 127
159 161 159 154 147 158 165 154 153 186 221 200 201 197 191 195 207 205 202 195 196 198 162 169 165 190 185 186 184 190 190 197 193 185 185 197 181 152 146 136 140 157 153 160 163 169 163 151 152 358 124 121 131 142 148 148 153 178 156 138 143 145 147
161 136 146 139 155 166 162 156 136 164 247 224 214 188 185 196 202 204 205 206 200 183 154 170 170 172 189 187 191 192 196 105 30 185 194 184 165 151 142 135 139 152 152 154 154 149 142 140 136 129 147 140 145 148 145 149 161 174 151 159 166 163 159
170 173 162 153 158 155 160 159 146 105 266 236 196 168 173 176 186 226 298 292 325 10 140 157 174 174 176 190 192 197 170 72 58 58 47 162 158 149 134 135 148 149 141 139 139 136 135 130 135 143 143 146 150 151 149 147 158 156 154 182 173 148 135